[[{"header":{"parameterUnit":"m.s-1","parameterCategory":1,"la1":30.2991,"la2":30.254,"lo1":-89.0895,"lo2":-89.0444,"dy":0.0017,"dx":0.0017,"nx":28,"ny":28,"refTime":"2023-09-05T09:00:00:Z","depth":0,"parameterNumber":2,"parameterNumberName":"U-component_of_WINDS"},"data":[0,0,0,0,0,0,0,0,0,0,0,0,0,0,0,0,0,0,0,0,0,0,0,0,0,0,0,0,0,0,0,0,0,0,0,0,0,0,0,0,0,0,0,0,0,0,0,0,0,0,0,0,0,0,0,0,0,0,-3.5314,-3.5313,0,-3.5288,-3.5288,-3.5288,-3.5235,-3.5234,-3.5233,-3.5232,-3.5206,-3.5206,-3.5206,0,0,0,0,0,0,0,0,0,0,0,0,0,-3.5318,-3.5319,-3.5314,-3.5313,-3.5313,-3.5288,-3.5288,-3.5287,-3.5235,-3.5234,-3.5233,-3.5231,-3.5206,-3.5206,-3.5206,0,0,0,0,0,0,0,0,0,0,0,0,0,-3.5307,-3.5319,-3.5314,-3.5284,-3.5281,-3.5288,-3.5288,-3.5287,-3.5235,-3.5234,-3.5232,-3.5231,-3.5206,-3.5206,-3.5207,-3.5241,0,0,-3.5208,-3.5208,0,0,0,0,0,0,0,0,-3.5308,-3.5307,-3.5288,-3.5286,-3.5283,-3.5263,-3.528,-3.5272,-3.5236,-3.5253,-3.5232,-3.523,-3.5226,-3.5225,-3.5224,-3.524,-3.5238,-3.5208,-3.5208,-3.5208,-3.5208,0,0,0,0,0,0,0,-3.5309,-3.5308,-3.5303,-3.5288,-3.5285,-3.5272,-3.5269,-3.5278,-3.5249,-3.5251,-3.5247,-3.5245,-3.5224,-3.5223,-3.5223,-3.5238,-3.5208,-3.5208,-3.5209,-3.5209,-3.5283,-3.5284,0,0,0,0,0,0,-3.5314,-3.5309,-3.5304,-3.5303,-3.5292,-3.5273,-3.527,-3.5271,-3.5248,-3.5243,-3.5246,-3.5243,-3.5223,-3.5222,-3.5221,-3.526,-3.5208,-3.5209,-3.5209,-3.5281,-3.5283,-3.5285,0,0,0,0,0,0,-3.5314,-3.5314,-3.5305,-3.5305,-3.5303,-3.5275,-3.5277,-3.5271,-3.527,-3.5245,-3.5239,-3.525,-3.5222,-3.5221,-3.5237,-3.5259,-3.5209,-3.5209,-3.5279,-3.5282,-3.5284,-3.5338,0,0,0,0,0,0,-3.5314,-3.5314,-3.5326,-3.5305,-3.5303,-3.532,-3.5278,-3.5272,-3.5271,-3.5266,-3.5247,-3.5243,-3.5221,-3.5236,-3.5237,-3.5258,-3.521,-3.5277,-3.528,-3.5283,-3.5334,-3.5342,-3.5349,0,0,0,0,0,-3.5315,-3.5342,-3.5327,-3.5327,-3.5317,-3.5322,-3.532,-3.5294,-3.5273,-3.5285,-3.5269,-3.5243,-3.5257,-3.5238,-3.5239,-3.526,-3.5275,-3.5279,-3.5283,-3.5331,-3.5341,-3.5349,0,0,0,0,0,0,-3.5366,-3.5339,-3.5322,-3.5343,-3.5335,-3.5313,-3.5327,-3.5306,-3.5303,-3.5299,-3.5267,-3.5263,-3.5283,-3.5274,-3.5254,-3.5293,-3.5262,-3.5266,-3.5298,-3.5307,-3.5315,-3.5316,-3.521,0,0,0,0,0,-3.538,-3.5385,-3.5362,-3.5383,-3.538,-3.5355,-3.5356,-3.5337,-3.5327,-3.5323,-3.5308,-3.53,-3.5303,-3.5305,-3.5306,-3.5334,-3.5329,-3.5349,-3.5357,-3.5363,-3.5366,-3.5381,-3.5389,-3.5297,-3.5297,-3.5297,0,0,-3.5408,-3.5394,-3.5399,-3.5393,-3.5384,-3.5391,-3.5352,-3.5361,-3.5365,-3.5325,-3.5338,-3.5328,-3.5317,-3.5339,-3.5348,-3.5332,-3.5391,-3.5368,-3.5373,-3.5373,-3.5386,-3.5394,-3.5402,-3.53,-3.5299,-3.5299,0,0,-3.5463,-3.5453,-3.547,-3.5463,-3.5451,-3.5435,-3.5439,-3.542,-3.5412,-3.5426,-3.5395,-3.5402,-3.5406,-3.54,-3.5397,-3.5454,-3.5429,-3.5455,-3.5493,-3.5508,-3.5515,-3.5521,-3.5541,-3.5548,-3.5459,-3.5459,-3.5459,0,-3.5499,-3.5508,-3.5481,-3.5492,-3.5491,-3.5456,-3.5473,-3.5467,-3.5457,-3.5457,-3.5439,-3.5445,-3.5435,-3.5456,-3.547,-3.5469,-3.5473,-3.5456,-3.5516,-3.5522,-3.5528,-3.5546,-3.5554,-3.5462,-3.5462,-3.5461,-3.5461,0,-3.5554,-3.5561,-3.5576,-3.5567,-3.5567,-3.5581,-3.5558,-3.5562,-3.5544,-3.553,-3.5545,-3.5533,-3.5531,-3.5535,-3.5517,-3.5554,-3.5544,-3.5522,-3.5489,-3.554,-3.5557,-3.5564,-3.5466,-3.5465,-3.5464,-3.5464,0,0,-3.5637,-3.5615,-3.5621,-3.5617,-3.5603,-3.5607,-3.5621,-3.562,-3.5624,-3.5619,-3.5629,-3.5636,-3.5616,-3.5613,-3.5595,-3.5608,-3.5654,-3.5584,-3.5584,-3.5597,-3.5693,-3.5709,-3.5718,-3.5639,-3.564,-3.5641,-3.5694,0,-3.5687,-3.5708,-3.5686,-3.5712,-3.5718,-3.5687,-3.5699,-3.5692,-3.568,-3.5684,-3.5671,-3.5676,-3.5649,-3.5647,-3.5659,-3.5646,-3.5672,-3.5642,-3.5648,-3.5649,-3.565,-3.5726,-3.5742,-3.5793,-3.5701,-3.5702,-3.5702,0,-3.5748,-3.5746,-3.5773,-3.5759,-3.5761,-3.5772,-3.5769,-3.5774,-3.5766,-3.5757,-3.5755,-3.5734,-3.5747,-3.5718,-3.5736,-3.5715,-3.5717,-3.5711,-3.5713,-3.5711,-3.5677,-3.5725,-3.5808,-3.5815,-3.5713,-3.5712,-3.5711,0,-3.5806,-3.581,-3.5827,-3.5824,-3.5808,-3.5817,-3.5811,-3.5801,-3.5803,-3.5801,-3.5802,-3.5803,-3.5802,-3.5804,-3.5784,-3.5764,-3.5804,-3.5773,-3.5797,-3.5797,-3.5805,-3.5804,-3.5888,-3.5809,-3.5809,-3.5809,-3.5808,0,-3.5863,-3.5881,-3.5852,-3.5862,-3.5881,-3.5857,-3.5877,-3.5867,-3.586,-3.5868,-3.5842,-3.585,-3.5824,-3.583,-3.5815,-3.5832,-3.5833,-3.5825,-3.5821,-3.5827,-3.5828,-3.5826,-3.5821,-3.5811,-3.581,-3.581,-3.5809,0,-3.5929,-3.5911,-3.5927,-3.5911,-3.5908,-3.5923,-3.5909,-3.5918,-3.5906,-3.5917,-3.5918,-3.5899,-3.5905,-3.5885,-3.5888,-3.5878,-3.5903,-3.5894,-3.5906,-3.5902,-3.5927,-3.5925,-3.6011,-3.6021,-3.5937,-3.5938,-3.5939,0,-3.5966,-3.5979,-3.5965,-3.5969,-3.5964,-3.5971,-3.5972,-3.595,-3.5952,-3.5946,-3.5956,-3.596,-3.5962,-3.5973,-3.596,-3.5962,-3.5952,-3.5982,-3.5952,-3.5958,-3.5951,-3.595,-3.5951,-3.5988,-3.5989,-3.5989,-3.599,0,-3.6034,-3.6025,-3.6028,-3.6029,-3.6031,-3.6031,-3.6028,-3.6033,-3.6009,-3.6014,-3.602,-3.6022,-3.6025,-3.603,-3.603,-3.6024,-3.6003,-3.6,-3.6006,-3.6011,-3.6017,-3.6014,-3.5922,-3.5998,-3.5997,-3.5996,-3.5996,-3.5996,-3.6086,-3.6096,-3.6088,-3.6093,-3.6089,-3.6088,-3.6096,-3.6086,-3.609,-3.6091,-3.6079,-3.6088,-3.6082,-3.608,-3.6076,-3.6084,-3.607,-3.6078,-3.6079,-3.6082,-3.6085,-3.6018,-3.6084,-3.6083,-3.6083,-3.6083,-3.6083,0,-3.6152,-3.6146,-3.6151,-3.6148,-3.6153,-3.6134,-3.6131,-3.6136,-3.6144,-3.6141,-3.6143,-3.6151,-3.6156,-3.6144,-3.6147,-3.6156,-3.6146,-3.6157,-3.6155,-3.6154,-3.6098,-3.6092,-3.6164,-3.6164,-3.6164,-3.6164,-3.6164,-3.6164,-3.6186,-3.6202,-3.6193,-3.6208,-3.6202,-3.6211,-3.6211,-3.621,-3.6207,-3.6217,-3.6221,-3.6213,-3.6207,-3.621,-3.6214,-3.621,-3.6212,-3.6226,-3.6219,-3.6166,-3.6158,-3.6151,-3.6145,-3.6227,-3.6227,-3.6275,-3.6275,-3.6276]},{"header":{"parameterUnit":"m.s-1","parameterCategory":1,"la1":30.2991,"la2":30.254,"lo1":-89.0895,"lo2":-89.0444,"dy":0.0017,"dx":0.0017,"nx":28,"ny":28,"refTime":"2023-09-05T09:00:00:Z","depth":0,"parameterNumber":3,"parameterNumberName":"V-component_of_WINDS"},"data":[0,0,0,0,0,0,0,0,0,0,0,0,0,0,0,0,0,0,0,0,0,0,0,0,0,0,0,0,0,0,0,0,0,0,0,0,0,0,0,0,0,0,0,0,0,0,0,0,0,0,0,0,0,0,0,0,0,0,3.0491,3.0491,0,3.0516,3.0517,3.0517,3.0566,3.0567,3.0568,3.0569,3.0591,3.059,3.059,0,0,0,0,0,0,0,0,0,0,0,0,0,3.048,3.048,3.0491,3.0491,3.0491,3.0516,3.0517,3.0517,3.0566,3.0567,3.0568,3.0569,3.0591,3.059,3.059,0,0,0,0,0,0,0,0,0,0,0,0,0,3.0493,3.048,3.049,3.0519,3.0521,3.0516,3.0517,3.0517,3.0565,3.0567,3.0568,3.057,3.0591,3.059,3.059,3.0558,0,0,3.0589,3.0588,0,0,0,0,0,0,0,0,3.0492,3.0493,3.0514,3.0517,3.052,3.054,3.0521,3.0531,3.0565,3.0548,3.0569,3.057,3.0572,3.0573,3.0575,3.0559,3.056,3.0589,3.0588,3.0588,3.0588,0,0,0,0,0,0,0,3.0491,3.0492,3.0501,3.0514,3.0518,3.0529,3.0532,3.0523,3.0552,3.055,3.0554,3.0556,3.0574,3.0575,3.0576,3.0561,3.0589,3.0588,3.0588,3.0588,3.0522,3.052,0,0,0,0,0,0,3.0487,3.0491,3.05,3.0501,3.0509,3.0528,3.0532,3.0532,3.0552,3.0557,3.0555,3.0558,3.0575,3.0576,3.0577,3.0542,3.0588,3.0588,3.0587,3.0523,3.0521,3.052,0,0,0,0,0,0,3.0486,3.0487,3.0499,3.0497,3.05,3.0527,3.0526,3.0531,3.0533,3.0556,3.0561,3.0551,3.0577,3.0577,3.0563,3.0543,3.0587,3.0587,3.0525,3.0523,3.0521,3.0471,0,0,0,0,0,0,3.0486,3.0487,3.0475,3.0497,3.05,3.0486,3.0525,3.0531,3.0532,3.0537,3.0554,3.0558,3.0578,3.0564,3.0563,3.0543,3.0587,3.0527,3.0524,3.0521,3.0475,3.0467,3.0461,0,0,0,0,0,3.0485,3.0459,3.0475,3.0475,3.0487,3.0484,3.0486,3.051,3.0531,3.0519,3.0534,3.0557,3.0546,3.0562,3.0561,3.0541,3.0528,3.0525,3.0521,3.0478,3.0469,3.0462,0,0,0,0,0,0,3.0433,3.0463,3.048,3.046,3.047,3.0493,3.0479,3.05,3.0503,3.0507,3.0536,3.054,3.0521,3.053,3.0547,3.0512,3.0541,3.0537,3.0507,3.0499,3.0493,3.0491,3.0586,0,0,0,0,0,3.0419,3.0416,3.0442,3.0422,3.0426,3.0452,3.0452,3.047,3.048,3.0484,3.0498,3.0506,3.0504,3.0502,3.0502,3.0476,3.0481,3.0463,3.0456,3.045,3.0447,3.0434,3.0427,3.0509,3.0509,3.0509,0,0,3.0391,3.0407,3.0402,3.0412,3.0421,3.0417,3.0455,3.0448,3.0444,3.0482,3.0471,3.0481,3.0492,3.0472,3.0464,3.0479,3.0425,3.0446,3.0441,3.0441,3.043,3.0422,3.0416,3.0507,3.0507,3.0507,0,0,3.0337,3.0348,3.0334,3.0343,3.0357,3.0375,3.0371,3.0391,3.04,3.0389,3.0418,3.0414,3.041,3.0417,3.042,3.037,3.0391,3.0369,3.0334,3.0322,3.0315,3.031,3.0292,3.0285,3.0365,3.0365,3.0365,0,3.0299,3.0294,3.0323,3.0315,3.0318,3.0355,3.034,3.0347,3.0359,3.0361,3.0377,3.0375,3.0384,3.0367,3.0355,3.0356,3.0353,3.0367,3.0314,3.0309,3.0304,3.0288,3.0281,3.0362,3.0363,3.0363,3.0363,0,3.0247,3.0243,3.023,3.0243,3.0245,3.0233,3.026,3.0258,3.0277,3.0292,3.028,3.0294,3.0297,3.0294,3.0311,3.028,3.0289,3.0309,3.0338,3.0293,3.0278,3.0272,3.0358,3.0359,3.036,3.0361,0,0,3.0159,3.0191,3.0185,3.0192,3.0212,3.0209,3.0199,3.0204,3.0202,3.021,3.0202,3.0199,3.0219,3.0222,3.024,3.023,3.019,3.0252,3.0253,3.024,3.0156,3.014,3.0132,3.0204,3.0203,3.0202,3.0155,0,3.0109,3.0096,3.0122,3.0101,3.0099,3.0134,3.0125,3.0135,3.015,3.0149,3.0164,3.0162,3.0188,3.019,3.0181,3.0196,3.0173,3.02,3.0196,3.0196,3.0193,3.0125,3.0108,3.0062,3.0149,3.0148,3.0148,0,3.0049,3.0056,3.0036,3.0058,3.0057,3.0049,3.0057,3.0055,3.0068,3.0079,3.0084,3.0106,3.0097,3.0125,3.0113,3.0131,3.0131,3.0139,3.0138,3.0138,3.0169,3.0123,3.0049,3.0042,3.0139,3.0139,3.014,0,2.9988,2.9992,2.9981,2.9986,3.001,3.0004,3.0014,3.0028,3.003,3.0036,3.0037,3.0041,3.0044,3.0046,3.0069,3.0087,3.0054,3.0084,3.0062,3.0062,3.0053,3.0054,2.9978,3.0053,3.0053,3.0054,3.0054,0,2.9929,2.9915,2.9954,2.9947,2.9932,2.9962,2.9947,2.996,2.9973,2.9968,2.9998,2.9993,3.0024,3.0022,3.004,3.0027,3.0028,3.0036,3.0041,3.0033,3.0032,3.0034,3.0037,3.0052,3.0052,3.0053,3.0053,0,2.9858,2.9883,2.9873,2.9899,2.9905,2.9893,2.9914,2.9908,2.9925,2.9919,2.9919,2.9945,2.9945,2.9968,2.9972,2.9984,2.9963,2.9974,2.996,2.9963,2.994,2.9942,2.9863,2.9854,2.9935,2.9934,2.9933,0,2.9819,2.9809,2.9834,2.9834,2.9843,2.9843,2.9845,2.9875,2.9876,2.989,2.9882,2.9885,2.9888,2.9886,2.9904,2.9907,2.9918,2.989,2.9918,2.9911,2.9918,2.9918,2.9917,2.9884,2.9883,2.9882,2.9881,0,2.9747,2.976,2.9764,2.9772,2.9774,2.9781,2.979,2.9788,2.982,2.982,2.9821,2.9824,2.9829,2.983,2.9837,2.9846,2.9869,2.9872,2.9867,2.986,2.9852,2.9856,2.9943,2.9874,2.9874,2.9875,2.9875,2.9876,2.9691,2.9685,2.9702,2.9705,2.9715,2.9723,2.9719,2.9736,2.9738,2.9745,2.9762,2.976,2.9774,2.9786,2.9793,2.9791,2.9805,2.9798,2.9796,2.9794,2.979,2.9852,2.9792,2.9793,2.9793,2.9793,2.9793,0,2.9621,2.9634,2.9637,2.9649,2.9651,2.9674,2.9686,2.9686,2.9684,2.9695,2.9699,2.97,2.9702,2.9721,2.9726,2.9721,2.9731,2.9721,2.9721,2.9723,2.9777,2.9781,2.9713,2.9713,2.9713,2.9713,2.9713,2.9713,2.9585,2.9576,2.9591,2.9588,2.96,2.96,2.9605,2.9612,2.9622,2.9622,2.9625,2.9638,2.9652,2.9658,2.9661,2.9667,2.9667,2.9653,2.9662,2.9712,2.9719,2.9727,2.9731,2.9653,2.9653,2.9609,2.9608,2.9608]}]]